Regional Weather Roundup
Issued by NWS

Home | Current Version | Previous Version | Graphics & Text | Print | Product List | Glossary On
Versions: 1 2 3 4 5 6 7 8 9 10 11 12 13 14 15 16 17 18 19 20 21 22 23 24 25 26 27 28 29 30 31 32 33 34 35 36 37 38 39 40 41 42 43 44 45 46 47 48 49 50
000
ASUS43 KLOT 231809
RWRIL

ILLINOIS REGIONAL WEATHER ROUNDUP
NATIONAL WEATHER SERVICE CHICAGO/ROMEOVILLE IL
100 PM CDT SAT JUL 23 2016

NOTE: "FAIR" INDICATES FEW OR NO CLOUDS BELOW 12,000 FEET WITH NO
SIGNIFICANT WEATHER AND/OR OBSTRUCTIONS TO VISIBILITY.

* THESE STATIONS ARE NOT UNDER NWS QUALITY CONTROL. THEY ALSO MAY NOT
  REPORT WEATHER SUCH AS PRECIPITATION OR FOG.

ILZ001-002-007-009-015-016-024-231900-
NORTHWEST ILLINOIS

CITY           SKY/WX    TMP DP  RH WIND       PRES   REMARKS
MOLINE         CLOUDY    89  79  72 SE8       29.95F HX 104
6HR MIN TEMP:  77; 6HR MAX TEMP:  89;

STERLING*      CLOUDY    86  79  79 VRB3      29.99R HX  99
SAVANNA*       CLOUDY    84  79  85 SE5       29.97F HX  97
$$

ILZ003-004-008-010-011-017-018-231900-
NORTH CENTRAL ILLINOIS

CITY           SKY/WX    TMP DP  RH WIND       PRES   REMARKS
ROCKFORD       CLOUDY    86  77  74 S9        29.99S HX  97
6HR MIN TEMP:  76; 6HR MAX TEMP:  87;

FREEPORT*      CLOUDY    82  77  85 S5        30.01S HX  90
ROCHELLE*      CLOUDY    84  78  81 S8        29.99S HX  95
DE KALB*       CLOUDY    86  77  74 S8        30.01R HX  97
$$

ILZ005-006-012>014-019>023-231900-
NORTHEAST ILLINOIS

CITY           SKY/WX    TMP DP  RH WIND       PRES   REMARKS
CHICAGO-OHARE  CLOUDY    89  73  59 SW6       29.98S HX  97
6HR MIN TEMP:  80; 6HR MAX TEMP:  90;

CHICAGO-MIDWAY CLOUDY    90  74  59 W6        29.98S HX  99
6HR MIN TEMP:  81; 6HR MAX TEMP:  90;

AURORA         PTSUNNY   89  77  67 S9        29.99F HX 101
6HR MIN TEMP:  76; 6HR MAX TEMP:  89;

LANSING*       CLOUDY    89  74  60 SW8       29.99S HX  99
JOLIET*        PTSUNNY   91  78  66 SW6       29.99S HX 105
WAUKEGAN       CLOUDY    85  77  77 E9        29.98S HX  95
6HR MIN TEMP:  78; 6HR MAX TEMP:  87;

DUPAGE AIRPORT PTSUNNY   89  73  59 S6        29.99S HX  97
6HR MIN TEMP:  77; 6HR MAX TEMP:  89;

WHEELING       CLOUDY    86  76  71 SE6       29.99S HX  96
6HR MIN TEMP:  80; 6HR MAX TEMP:  89;

MORRIS*        PTSUNNY   87  77  71 SW5       29.98S HX  98
ROMEOVILLE*    CLOUDY    87  73  64 SW6       29.99S HX  94
NORTHERLY ISL    N/A     82  75  79 E3          N/A  HX  89
$$

LMZ740>746-231900-
SOUTHERN LAKE MICHIGAN

STATION/POSITION SKY/WX   TEMP    WIND        PRES    VSBY  WAVE
                          AIR SEA DIR/SP/G                  HT/PER
                          (F)     (DEG/KT/KT) (MB)    (MI)  (FT/S)
SOUTHERN BUOY              77 77  160/  4/  4 1014.8F         0
WILMETTE HARBOR            79 74  130/  4/  6   N/A           0
HARRISON CRIB              81     110/  8/  9   N/A
BURNHAM HARBOR             82      80/  2/  5   N/A
CALUMET HARBOR             81      50/  6/  8 1014.9F
BURNS HARBOR               82      50/  4/  5 1015.9F
MICHIGAN CITY              79     360/  3/  4   N/A
MICHIGAN CITY 6N           80 78   30/  2/  4   N/A           0
ST. JOSEPH                 78 78  320/  2/  4 1015.2F         1
$$

ILZ025>027-034>036-040-047-049-050-058-095>099-231900-
WEST-CENTRAL ILLINOIS

CITY           SKY/WX    TMP DP  RH WIND       PRES   REMARKS
QUINCY         SUNNY     91  78  65 S9        29.96F HX 106
GALESBURG*     PTSUNNY   88  78  72 S5        29.97F HX 102
MACOMB*        MOSUNNY   89  79  73 S9        29.99F HX 104
JACKSONVILLE*  SUNNY     88  78  71 S5        29.98F HX 102
PITTSFIELD*    SUNNY     89  80  74 SE5       29.99F HX 105
$$

ILZ028>032-037-038-041>044-048-051>054-059>061-231900-
CENTRAL ILLINOIS

CITY           SKY/WX    TMP DP  RH WIND       PRES   REMARKS
PONTIAC        MOSUNNY   88  78  71 S5        30.00S HX 102
BLOOMINGTON    SUNNY     87  73  62 S6        30.01F HX  94
DECATUR        SUNNY     89  74  60 S7        30.00F HX  98
PEORIA         MOSUNNY   88  75  65 S8        29.98F HX  97
6HR MIN TEMP:  77; 6HR MAX TEMP:  89;

LACON*         CLOUDY    88  74  62 SW5       29.98R HX  96
LINCOLN*       SUNNY     89  76  65 S5        29.99F HX 101
SPRINGFIELD    SUNNY     90  75  61 S6        29.99F HX 100
6HR MIN TEMP:  77; 6HR MAX TEMP:  90;

TAYLORVILLE    SUNNY     86  76  72 NW6       30.00S HX  96
6HR MIN TEMP:  73; 6HR MAX TEMP:  87;

$$

ILZ033-039-045-046-055>057-062-063-231900-
EAST-CENTRAL ILLINOIS

CITY           SKY/WX    TMP DP  RH WIND       PRES   REMARKS
CHAMPAIGN      MOSUNNY   86  75  69 S6        30.02S HX  95
MATTOON        MOSUNNY   86  74  67 S7        30.00F HX  94
PARIS*         MOSUNNY   86  77  74 CALM      30.02S HX  98
$$

ILZ079-100>102-231900-
SOUTHWEST ILLINOIS

CITY           SKY/WX    TMP DP  RH WIND       PRES   REMARKS
BELLEVILLE     SUNNY     90  78  67 CALM      29.97F HX 103
CAHOKIA*       SUNNY     93  71  48 SE3       29.98S HX 100
SPARTA*        MOSUNNY   88  74  63 SE3       30.00S HX  97
$$

ILZ064>066-069>071-074>076-080>082-084>086-088>090-092>094-231900-
SOUTH-CENTRAL ILLINOIS

CITY           SKY/WX    TMP DP  RH WIND       PRES   REMARKS
CARBONDALE     MOSUNNY   89  76  65 VRB5      29.99F HX 100
6HR MIN TEMP:  73; 6HR MAX TEMP:  89;

CAIRO*         SUNNY     87  77  73 CALM      29.98S HX  98
EFFINGHAM*     MOSUNNY   88  76  68 E5        30.02F HX  99
MT. VERNON     SUNNY     90  73  58 E3        30.00F HX  98
CENTRALIA*     MOSUNNY   90  77  67 NE5       29.99F HX 103
SALEM*         CLOUDY    89  76  65 CALM      30.00F HX 100
METROPOLIS*    MOSUNNY   88  75  65 CALM      30.00R HX  98
$$

ILZ067-068-072-073-078-083-087-091-231900-
SOUTHEAST ILLINOIS

CITY           SKY/WX    TMP DP  RH WIND       PRES   REMARKS
LAWRENCEVILLE  MOSUNNY   88  77  69 CALM      30.01S HX 100
FLORA*         MOSUNNY   89  77  67 E5        30.00F HX 101
FAIRFIELD*     MOSUNNY   87  76  71 CALM      29.99F HX  97
HARRISBURG*    MOSUNNY   88  79  74 E5        30.00S HX 102
CARMI*         PTSUNNY   86  78  77 CALM      30.00S HX  99
$$

ABBREVIATIONS USED IN REMARKS
   TC - TEMPERATURE IN CELSIUS
  WCI - WIND CHILL INDEX
   HX - HEAT INDEX
  VSB - VISIBILITY
$$





USA.gov is the U.S. government's official web portal to all federal, state and local government web resources and services.